GFSMW_sfc_wetblb_096.txt.gz
Wetbulb
69.51 73.52 73.16 73.21 74.19 75.32 75.41 75.91 75.80 77.00 76.10 75.37 74.09 74.44 72.71 73.89 73.47 74.80 76.74 75.40 75.76 76.12 76.27 74.68 75.40 75.79 74.65 74.15 75.22 73.98 73.87 72.69 73.74 72.13 72.05 73.10 74.86 74.87 74.57 74.61 73.08 74.36 75.19
68.33 72.90 73.01 72.85 73.56 74.85 74.89 75.91 75.81 76.43 76.34 75.59 74.43 74.50 75.08 74.54 74.78 76.91 77.33 76.36 75.38 76.23 76.00 75.61 75.86 76.34 75.11 74.72 75.01 74.67 73.31 73.12 73.24 70.89 69.63 67.49 70.61 72.60 72.90 73.14 73.78 73.98 74.14
67.91 72.50 72.66 72.61 73.34 74.16 75.04 75.10 76.65 76.27 76.32 76.33 75.41 74.92 75.50 77.21 74.17 74.52 74.78 75.69 76.08 76.21 76.14 76.21 74.77 75.72 75.26 72.63 74.01 73.02 73.36 71.42 72.18 73.28 68.43 65.61 65.36 68.86 72.64 72.32 72.66 72.98 73.48
69.37 73.20 72.92 72.58 73.03 74.17 76.27 76.05 76.64 76.97 76.30 76.50 75.04 74.55 72.74 71.83 73.99 74.80 75.08 75.26 76.39 76.17 75.52 75.18 75.53 75.89 75.58 74.35 72.95 75.15 73.09 71.96 70.48 72.53 71.77 71.01 70.64 66.87 66.20 71.68 71.77 71.17 71.45
68.48 72.81 73.30 73.20 73.94 74.75 75.61 76.63 76.08 77.50 76.69 76.40 75.72 74.63 73.38 74.31 74.27 74.97 75.96 74.96 75.43 76.17 75.58 75.35 74.42 74.38 75.42 74.14 73.52 73.94 74.07 73.45 72.02 71.26 70.63 71.26 70.58 70.68 68.35 65.95 67.00 71.17 72.04
68.10 72.85 74.21 74.75 74.01 74.94 75.57 76.20 76.27 76.42 77.43 76.97 77.26 75.51 74.47 74.14 73.09 73.04 74.28 73.87 75.04 75.32 75.89 75.54 74.97 74.99 75.24 73.78 73.93 73.86 73.36 73.32 73.02 71.58 71.28 70.26 69.75 68.57 68.48 67.00 67.58 68.27 69.73
67.55 60.45 63.32 73.44 73.70 73.89 74.85 76.02 76.69 75.52 76.77 76.92 76.42 77.03 75.59 75.23 74.88 74.69 73.92 73.45 73.04 74.19 74.70 75.87 75.48 74.87 75.54 74.44 75.05 74.70 74.44 74.12 73.16 72.61 72.10 72.47 70.95 71.11 70.52 69.27 67.00 67.49 69.42
66.41 63.60 66.89 74.37 74.52 74.23 74.43 75.19 76.27 76.06 76.28 76.54 76.33 77.56 76.51 74.91 75.66 76.56 73.40 74.57 73.70 73.70 76.02 75.47 75.78 75.66 75.16 75.10 75.04 74.44 74.38 74.02 72.95 72.34 71.71 71.14 71.21 71.32 70.53 68.41 67.29 64.64 66.33
67.87 67.76 68.33 73.68 75.39 75.20 75.28 75.16 75.81 76.75 76.59 76.64 76.85 75.91 76.84 76.99 74.60 76.04 77.38 74.92 76.13 74.90 76.11 75.43 75.61 75.73 75.06 74.83 75.12 73.52 73.64 73.53 73.07 72.64 72.77 71.85 71.52 72.11 70.93 69.27 67.04 65.60 62.92
69.52 72.83 73.63 74.08 74.00 74.67 76.20 76.50 76.76 77.04 77.09 77.05 77.18 76.81 77.73 77.50 75.84 77.30 74.91 77.44 76.91 75.88 75.73 75.64 75.24 75.04 75.14 75.55 74.96 74.02 73.79 73.46 73.36 72.63 71.66 71.67 71.39 71.53 69.91 68.34 67.81 67.04 65.30
66.84 72.17 73.25 73.96 72.46 72.34 73.33 76.61 77.08 77.50 76.82 76.88 77.32 77.57 76.99 76.60 76.25 75.29 74.33 75.59 77.90 77.01 75.17 75.90 75.29 74.85 74.77 75.33 74.64 74.14 73.82 72.65 72.54 72.30 72.07 71.83 72.38 70.54 70.20 70.53 70.06 68.57 68.37
69.23 68.72 70.17 70.72 70.20 70.27 71.20 76.12 77.75 77.42 77.24 77.13 76.23 75.31 69.25 74.83 73.29 73.59 74.46 75.31 76.05 76.88 75.36 75.76 75.55 75.27 74.97 74.50 73.96 72.93 72.53 72.08 72.01 71.59 71.14 71.26 72.31 71.59 72.06 71.27 70.28 70.22 70.13
65.32 65.36 65.48 66.21 66.56 67.73 68.42 68.81 70.01 69.45 69.44 68.98 68.86 66.41 66.81 65.23 65.78 69.41 72.07 74.43 75.00 75.34 75.25 75.47 74.79 74.74 74.96 74.13 73.60 73.05 73.26 73.31 72.38 72.27 71.74 70.90 71.42 71.10 70.41 70.95 70.44 70.45 70.75
65.60 64.80 64.91 65.51 66.01 66.20 68.14 67.83 68.22 69.13 69.33 68.08 67.29 65.70 65.67 66.33 66.84 69.43 69.52 72.09 72.87 73.62 74.48 74.56 74.96 74.64 74.63 74.95 73.24 73.23 73.13 73.36 73.23 73.02 72.06 71.17 70.87 71.17 70.27 70.68 70.20 70.28 69.62
64.04 64.90 64.69 65.01 65.95 66.31 67.17 66.83 67.63 67.00 68.66 68.30 66.62 66.24 65.83 65.12 65.37 65.85 68.97 71.53 72.96 73.37 74.00 73.81 74.66 74.67 74.64 73.44 73.88 73.40 73.01 72.84 72.16 72.60 72.48 70.94 71.53 71.97 71.61 71.09 70.49 70.23 69.90
63.41 64.36 64.72 65.84 66.25 66.93 66.76 67.99 67.95 67.56 69.56 68.39 67.56 66.33 66.06 64.91 64.10 65.08 68.50 71.49 72.31 73.44 73.79 73.96 73.56 73.47 73.08 67.74 68.08 72.26 72.87 72.94 73.14 72.62 72.80 72.78 70.53 69.76 67.59 68.03 67.90 70.51 69.67
62.98 64.00 64.34 64.55 65.63 66.43 68.72 66.69 66.92 67.55 67.72 68.30 69.87 67.52 67.68 67.57 67.71 68.35 69.61 71.05 72.61 74.37 73.41 72.94 72.28 72.65 73.58 64.90 63.95 67.24 73.34 73.19 72.77 72.80 72.18 71.81 71.32 69.16 70.59 65.79 66.01 65.83 65.65
62.87 64.52 63.64 63.70 65.04 66.96 68.12 67.81 67.63 68.19 68.67 68.59 69.61 69.95 69.02 68.89 68.25 69.16 69.43 70.25 72.18 71.88 70.90 71.03 71.05 73.20 73.37 62.53 61.36 64.05 73.16 73.02 73.13 73.33 73.05 71.96 71.28 72.00 70.70 70.72 68.18 68.21 68.07
63.46 65.01 65.27 64.55 65.38 65.68 66.64 65.99 64.80 68.07 68.46 68.25 69.00 69.45 69.93 69.43 68.31 67.36 68.90 69.38 69.80 68.64 69.61 72.10 74.09 73.36 71.89 60.90 59.36 63.50 72.03 72.14 72.17 72.82 72.80 72.39 71.35 67.39 63.43 70.15 69.52 69.33 69.09
63.81 63.22 63.91 64.01 64.51 65.07 65.20 64.00 63.46 63.87 64.31 65.68 66.59 69.57 70.22 69.28 69.31 70.16 68.79 68.20 69.43 68.64 69.56 69.46 72.26 69.88 72.61 62.50 58.22 61.78 71.01 70.87 71.17 72.54 72.59 65.09 69.55 63.12 59.28 68.64 69.75 68.40 69.02
63.04 63.88 63.71 63.56 65.17 65.53 65.75 64.43 64.07 63.59 65.61 66.06 66.28 65.79 66.98 68.43 69.77 69.56 70.39 69.31 69.20 69.00 70.72 71.20 71.90 72.00 71.21 72.01 56.77 57.31 70.21 70.82 70.80 70.18 70.47 71.41 60.79 57.93 55.04 58.28 70.24 68.29 68.68
62.36 63.07 62.98 63.51 64.81 65.63 65.08 64.06 62.58 65.07 66.15 66.82 65.77 65.21 65.22 65.51 66.91 68.41 69.03 70.22 70.31 69.37 69.35 68.57 67.49 68.66 71.41 63.59 57.65 53.69 55.48 64.62 69.56 70.03 71.17 70.15 55.37 54.94 54.44 56.19 59.65 57.19 61.26
63.56 63.66 62.69 63.30 64.45 65.15 64.95 63.32 64.28 65.34 65.50 65.81 66.76 66.67 64.40 63.39 66.19 67.09 67.85 67.04 69.24 68.66 68.58 67.49 67.74 67.77 69.69 70.88 58.54 55.12 54.64 56.06 63.00 69.06 65.68 56.03 54.96 51.59 53.01 53.99 55.98 55.52 66.28
62.34 62.89 62.44 62.41 63.12 64.81 64.64 64.60 65.07 65.29 64.77 64.34 65.14 66.78 67.84 64.55 66.00 66.31 65.33 64.93 65.22 65.88 65.13 64.80 64.79 66.18 67.00 65.01 61.78 63.46 65.23 57.47 61.03 62.75 66.14 63.84 59.33 58.85 60.77 60.88 57.75 64.73 67.28
63.07 63.09 63.46 62.65 62.79 63.93 63.59 64.61 64.59 64.53 63.09 63.47 63.79 65.14 64.81 64.90 66.42 66.61 65.82 64.88 66.35 63.72 64.19 63.84 64.17 63.46 63.44 62.99 51.30 51.56 57.49 58.34 54.83 54.50 64.36 64.60 64.95 65.04 64.29 64.36 64.91 65.08 66.29
62.99 62.81 61.56 61.65 62.70 62.65 63.26 64.50 65.13 64.40 63.17 61.92 61.30 61.55 61.19 60.84 61.72 65.69 65.17 56.43 55.26 52.20 49.33 46.25 52.27 61.03 54.33 48.83 44.41 42.81 42.25 42.61 44.60 57.40 61.89 62.80 65.01 64.64 65.26 64.92 64.76 64.59 64.73

GFSMW_sfc_wetblb_102.txt.gz
Wetbulb
69.01 69.81 69.70 70.77 70.57 71.64 71.98 72.56 72.59 72.29 72.33 71.90 71.18 70.38 70.60 71.59 70.74 71.67 72.29 72.69 72.13 72.09 71.87 71.40 71.16 71.21 71.00 70.72 70.96 70.06 69.27 69.43 69.04 67.54 67.09 67.63 69.07 69.60 70.24 70.16 69.68 70.09 70.16
67.99 68.69 68.75 69.83 70.86 70.86 71.46 72.21 72.67 72.72 72.13 71.79 72.21 71.26 70.91 70.36 71.36 71.52 71.85 72.70 72.53 71.86 71.23 70.32 69.88 70.42 70.22 69.74 69.90 69.02 68.58 68.60 69.32 67.05 64.86 62.55 64.38 66.62 69.46 70.22 70.67 70.40 70.54
66.22 67.67 67.60 69.07 70.60 70.62 70.95 71.59 72.55 72.68 72.43 72.20 71.85 70.28 69.41 69.19 69.45 69.19 70.65 72.27 72.73 72.74 72.05 71.40 70.65 70.56 70.16 70.03 69.84 70.01 69.16 67.79 68.40 68.50 65.41 62.36 61.07 64.31 65.80 67.66 69.34 69.68 69.25
63.51 67.52 67.29 68.50 69.47 70.57 71.76 71.62 71.91 72.53 72.51 72.36 71.02 70.97 69.73 68.63 70.39 69.72 69.50 71.39 72.65 72.51 72.81 72.36 71.68 71.08 70.47 69.25 69.90 70.90 69.79 68.33 66.84 67.47 69.11 66.82 66.33 63.68 61.65 65.62 67.47 69.07 69.44
63.42 66.30 66.81 68.92 69.74 71.19 71.36 71.72 71.66 72.04 72.21 72.29 71.52 71.18 70.24 69.77 68.02 68.50 68.45 70.92 71.09 71.79 72.31 72.05 71.53 71.26 71.80 71.09 70.35 69.84 69.46 69.52 66.88 66.66 66.43 66.95 66.23 65.68 64.33 62.72 65.15 67.65 68.96
60.75 63.70 65.61 66.32 67.86 70.15 71.53 72.03 71.35 71.49 72.29 72.09 71.57 70.61 70.05 69.06 67.92 68.84 68.52 69.83 70.83 70.98 71.48 72.01 71.62 71.00 71.13 71.19 70.89 70.29 70.24 69.70 69.07 68.40 67.97 67.03 66.14 65.29 64.26 65.01 64.49 64.78 66.38
60.28 60.27 62.04 63.00 64.04 64.34 66.78 71.24 71.90 71.12 71.96 71.78 71.51 70.76 70.19 68.94 68.88 68.66 69.43 69.66 70.49 70.85 71.24 71.53 71.04 70.84 70.89 71.18 70.49 70.40 70.17 69.21 69.21 69.18 68.42 68.85 67.61 66.87 66.33 65.31 64.28 63.34 64.64
60.22 60.02 61.56 61.25 63.10 64.27 64.73 64.19 68.51 71.19 72.10 71.93 71.50 71.30 70.88 70.09 69.92 69.26 70.46 70.53 70.71 71.03 72.26 71.87 71.71 71.24 71.14 71.13 70.87 69.73 70.07 69.03 67.76 68.15 68.87 68.89 68.76 69.10 68.53 67.05 64.67 62.35 62.26
60.04 60.67 61.67 61.84 61.93 63.08 63.32 63.85 66.16 70.63 72.14 72.14 71.84 71.66 71.15 70.75 70.37 69.72 70.17 71.22 71.40 71.79 71.49 72.57 72.14 71.57 71.36 71.24 70.80 69.30 69.23 69.23 68.58 68.85 69.12 69.66 69.86 69.78 69.23 67.74 66.25 65.04 63.05
60.65 62.23 62.44 63.03 62.41 63.63 64.11 64.62 68.23 69.25 72.39 72.12 72.06 71.56 72.30 71.37 71.43 71.61 70.06 70.94 70.88 71.89 71.53 71.91 72.39 71.91 71.44 71.23 70.40 69.66 69.00 69.32 68.85 69.07 68.49 68.76 69.03 69.16 68.73 67.63 66.84 65.84 65.19
60.28 63.54 63.19 64.34 63.54 63.66 63.98 65.18 65.18 67.58 69.04 73.10 72.40 72.29 71.66 67.83 68.04 67.32 65.79 67.32 69.47 70.70 71.36 71.89 71.68 71.54 71.14 71.15 70.58 69.55 69.27 68.87 68.62 68.94 68.37 68.17 67.95 67.92 67.65 66.40 65.41 65.41 65.32
57.84 61.25 65.02 63.71 63.65 65.61 65.53 63.46 64.64 65.42 67.09 70.59 69.32 68.22 66.68 65.99 65.90 65.21 65.46 66.61 66.37 67.70 70.43 70.94 71.15 71.38 71.40 71.07 70.26 69.56 69.77 68.22 67.63 67.90 67.59 67.59 68.96 66.93 67.27 66.58 65.25 64.91 65.30
60.77 62.57 64.46 64.93 65.08 65.41 64.77 64.91 66.08 66.46 69.93 70.12 67.18 66.15 65.26 66.02 65.62 65.73 65.21 66.23 66.96 67.32 66.96 67.74 70.15 70.51 70.95 70.55 70.37 69.98 69.20 68.68 68.37 68.20 67.30 67.14 67.38 66.71 66.57 66.75 66.56 66.74 66.68
57.48 59.38 62.65 63.16 65.03 65.00 64.59 65.00 66.28 67.07 68.53 67.77 66.53 65.63 64.56 64.00 65.30 65.51 66.32 66.33 66.71 66.22 66.14 65.77 69.56 70.36 70.13 70.12 70.04 69.64 68.57 67.83 68.32 68.34 67.90 67.25 66.85 67.30 66.66 66.61 67.16 66.81 66.56
56.53 59.72 61.39 62.49 64.16 65.40 65.75 64.75 64.90 65.76 66.55 66.30 66.68 65.97 65.70 66.44 65.92 65.00 65.86 65.87 64.85 64.54 65.34 64.72 69.89 69.69 69.76 70.55 69.79 69.51 68.85 67.71 67.65 68.10 68.19 67.88 68.08 67.28 66.76 67.18 66.26 65.85 65.44
60.23 62.10 62.13 62.84 64.11 64.86 65.39 66.60 65.07 65.13 65.63 64.84 64.70 64.82 65.06 65.47 65.37 65.83 65.58 65.48 65.13 64.56 65.02 68.84 69.56 68.53 70.86 66.09 65.17 67.90 68.46 68.29 67.62 67.16 67.63 67.94 68.12 67.26 65.40 65.73 65.91 66.44 65.56
61.99 61.90 61.77 62.28 63.90 64.44 63.93 63.25 64.08 64.22 64.95 65.13 64.86 64.43 63.64 63.32 63.03 64.17 64.38 64.35 65.33 67.41 68.12 68.55 68.24 67.59 68.39 63.75 62.16 64.72 69.14 68.51 68.22 67.92 67.40 67.57 69.31 66.86 67.36 64.86 64.35 64.89 64.47
61.21 61.05 62.12 62.48 63.01 64.20 63.41 64.91 64.50 64.28 64.31 64.62 64.72 64.03 63.66 63.07 62.78 63.79 63.91 65.53 65.80 65.20 66.31 67.11 67.97 67.88 68.28 61.60 60.51 62.34 66.78 67.65 67.92 68.83 68.37 67.99 67.69 67.13 67.02 66.18 64.46 65.61 66.11
59.43 61.27 63.13 63.32 63.14 62.79 63.52 63.47 63.30 63.23 62.95 62.76 63.12 64.67 64.82 63.87 63.65 63.02 63.35 63.81 64.83 65.05 65.50 67.45 67.94 67.65 68.01 62.00 58.92 61.03 65.03 65.74 66.93 67.20 67.34 68.01 67.52 63.95 61.07 65.77 63.79 63.42 64.06
59.85 59.90 60.85 61.55 60.52 60.59 61.30 61.54 61.86 61.17 60.49 62.33 62.71 63.51 64.12 64.45 63.55 63.23 63.38 63.89 64.30 64.77 66.43 66.46 66.59 64.37 66.98 59.63 57.65 58.68 65.82 65.10 66.07 66.76 66.51 63.25 65.39 61.07 58.47 65.01 65.54 64.24 64.60
59.68 59.68 60.11 58.89 58.86 59.07 58.52 57.50 57.64 57.97 60.28 61.28 61.11 62.25 61.15 62.79 63.14 63.15 63.82 63.77 63.64 63.50 64.41 65.17 65.63 65.74 65.65 66.11 58.20 54.75 65.12 66.50 66.48 65.46 65.38 66.19 59.75 55.84 54.93 57.07 65.86 65.66 65.53
59.63 59.25 57.89 58.09 58.41 58.32 57.01 55.71 56.11 57.70 58.84 59.17 60.50 60.11 59.37 61.17 62.39 61.98 63.14 63.28 63.53 63.12 63.05 64.04 65.00 66.21 65.92 55.12 56.93 53.12 54.39 58.90 65.88 66.75 66.86 65.65 54.72 54.39 51.85 54.93 56.63 54.01 57.96
58.51 58.53 57.77 57.43 57.69 57.97 56.91 55.71 55.95 57.09 57.57 56.67 56.54 57.14 60.00 60.12 60.56 59.93 59.72 60.57 61.83 62.18 61.16 61.38 60.98 61.85 61.05 58.76 52.01 52.76 54.57 54.93 57.35 62.40 62.35 56.20 54.03 52.76 55.64 53.28 54.93 55.96 61.88
57.98 57.59 57.17 56.91 56.38 57.25 57.71 56.47 56.95 56.72 56.02 55.51 55.55 55.23 57.59 58.85 59.01 59.84 59.72 58.34 59.55 59.47 59.40 58.17 57.85 58.97 60.14 58.05 57.03 56.55 56.19 55.15 56.31 55.75 56.63 58.50 58.72 57.29 61.02 60.46 59.18 59.98 62.27
57.72 58.20 58.08 57.84 56.17 57.13 56.84 56.68 56.96 56.11 55.29 55.35 55.27 54.50 54.38 52.76 53.20 57.56 59.15 58.93 58.78 58.00 57.80 57.72 57.61 56.53 56.25 56.37 49.78 49.57 52.89 52.39 50.96 48.86 53.56 56.83 58.92 60.79 60.63 60.37 60.72 59.38 60.19
57.37 58.48 58.36 57.32 55.87 56.26 55.40 55.58 55.51 56.01 54.66 54.28 54.68 54.24 54.36 53.86 53.80 52.89 53.48 54.99 54.78 49.86 49.42 48.23 52.60 56.29 51.12 47.68 42.97 42.06 41.68 42.03 43.84 50.90 53.48 54.56 57.17 58.85 59.96 59.42 60.02 60.36 60.12

GFSMW_sfc_wetblb_105.txt.gz
Wetbulb
67.62 68.30 68.64 70.39 70.69 70.78 70.39 70.45 70.02 70.56 70.77 70.57 70.35 70.30 69.78 70.66 70.46 71.21 71.94 71.71 72.20 72.10 71.36 70.50 70.09 70.44 69.98 69.87 69.99 69.32 68.23 68.30 67.90 66.64 66.40 66.96 68.43 68.55 69.06 69.43 68.20 68.19 69.63
66.72 67.80 68.19 69.19 70.05 70.18 70.66 70.59 70.81 70.87 70.93 70.88 70.73 70.94 70.85 71.03 71.27 71.20 71.03 72.15 72.04 71.66 71.62 70.84 70.16 70.35 70.35 69.41 69.43 69.22 67.47 68.03 68.28 65.65 63.96 62.45 64.27 65.74 67.81 68.76 69.98 69.41 69.68
60.68 66.96 67.51 68.31 69.47 69.76 70.41 70.87 71.26 71.40 71.33 71.34 71.15 69.21 69.35 69.25 69.05 69.61 70.49 71.03 72.01 71.37 71.60 70.84 70.57 70.36 70.57 69.45 69.29 68.80 67.94 65.88 67.33 67.56 64.96 60.99 60.67 62.32 65.78 66.60 68.31 69.49 69.54
63.15 63.79 67.54 67.29 68.35 69.15 70.43 71.21 71.78 71.80 71.46 71.61 70.79 69.65 68.64 68.18 69.94 69.88 70.59 71.04 71.84 71.67 71.52 70.97 70.32 69.91 70.22 69.24 69.47 69.99 68.91 67.87 65.96 66.20 67.83 65.68 64.51 61.69 60.78 64.97 66.71 68.08 68.57
62.30 62.94 65.01 67.08 68.80 70.30 70.39 70.84 71.86 72.28 71.93 70.95 70.55 70.37 68.93 69.17 69.77 68.11 69.16 70.33 71.16 71.78 72.07 71.28 70.45 70.02 70.15 69.78 69.45 69.22 69.04 68.71 66.50 66.05 65.93 66.67 65.61 64.55 63.16 61.91 64.88 66.51 67.83
60.88 62.69 64.56 65.22 64.63 68.50 70.78 70.80 70.48 70.86 71.96 71.52 70.33 69.75 69.49 68.60 67.21 68.14 68.17 69.36 70.11 70.87 71.36 71.72 71.07 70.78 70.75 70.12 69.65 69.78 69.45 69.16 68.66 67.02 65.89 65.67 64.83 64.62 63.48 63.58 63.77 64.60 66.53
59.90 60.36 62.14 62.79 63.03 63.63 64.88 64.25 65.61 67.85 71.37 71.29 71.02 70.21 70.07 69.18 68.15 68.01 68.39 68.21 69.10 69.11 69.94 70.56 70.56 70.15 70.27 70.89 69.70 69.45 69.54 69.65 69.32 68.46 67.80 66.97 66.57 65.98 65.44 64.31 62.33 63.02 64.75
59.23 60.03 61.35 62.12 63.63 63.82 64.11 64.31 64.20 64.51 67.82 69.80 70.54 70.74 70.67 70.24 69.17 68.81 69.22 68.85 69.60 70.07 70.61 70.63 70.70 70.74 70.22 70.27 70.28 70.17 69.61 68.69 68.23 67.35 67.15 67.74 67.80 68.03 67.22 65.53 63.69 63.54 63.33
58.39 60.07 61.53 61.86 62.34 63.49 63.10 63.69 63.46 64.25 66.06 67.92 67.89 70.91 70.57 70.19 69.60 69.30 69.22 69.75 69.92 70.78 71.03 71.06 70.80 70.84 70.46 70.31 70.01 69.61 69.07 68.91 67.85 68.08 68.10 68.05 68.35 68.78 68.26 67.71 66.63 65.37 62.78
58.54 62.19 62.87 62.18 62.36 62.44 62.62 63.14 63.54 63.15 64.00 66.13 68.63 67.59 71.29 70.68 70.26 69.87 68.86 70.57 70.98 70.90 70.93 71.31 71.32 70.99 70.72 70.50 70.19 69.72 68.89 68.73 68.08 68.64 67.65 67.35 67.51 67.92 68.39 68.57 67.10 65.88 65.21
55.20 59.91 62.61 64.04 64.20 64.42 64.30 63.14 63.75 63.34 65.03 65.34 67.25 70.44 67.78 67.08 65.91 66.32 68.14 70.52 70.60 71.10 70.83 70.82 71.30 71.13 70.58 70.37 70.17 69.74 69.05 68.53 67.87 67.69 67.33 66.93 67.31 67.30 67.01 66.26 65.52 64.84 65.07
58.38 58.80 58.98 63.46 63.79 64.57 65.92 66.20 63.05 63.42 65.06 67.34 67.63 66.02 65.64 65.60 64.94 64.98 65.70 66.32 67.40 70.32 70.62 71.38 70.64 70.97 70.89 70.46 70.25 69.54 69.82 68.62 67.35 67.13 67.17 67.27 68.08 66.34 66.18 65.70 64.77 64.18 64.10
57.98 60.17 62.53 62.96 63.57 64.39 64.94 65.20 66.12 65.47 66.39 67.58 66.33 64.46 64.82 62.93 63.89 64.34 66.23 66.21 66.92 67.13 67.17 69.00 70.04 69.68 70.35 70.28 70.45 70.06 69.16 68.37 68.05 67.74 67.33 67.58 66.61 66.00 65.38 65.41 65.33 65.31 65.11
55.64 56.01 59.85 60.76 63.07 64.29 64.73 64.41 66.00 66.72 68.69 66.93 65.00 64.02 64.40 62.69 63.24 63.64 65.13 66.00 67.76 68.01 67.80 67.60 67.96 68.89 69.79 70.21 69.63 69.79 68.89 68.46 68.46 67.85 67.43 67.31 66.44 66.57 66.18 65.84 65.86 65.68 66.36
56.55 58.51 60.15 60.89 63.62 64.24 64.99 64.82 64.99 65.86 66.64 64.84 64.96 63.60 63.84 64.70 64.41 64.02 64.94 66.46 67.29 66.98 66.64 66.87 67.00 68.28 69.52 70.43 69.47 69.78 69.23 68.30 67.58 67.20 67.49 67.40 67.62 67.26 66.91 66.93 65.61 65.43 65.13
60.52 62.18 62.33 62.27 63.25 63.71 64.57 63.80 63.49 63.36 65.31 65.60 64.80 65.38 65.43 63.55 63.02 64.95 65.51 65.14 64.99 63.76 63.67 63.82 65.73 67.16 69.76 65.37 64.05 67.87 68.77 67.96 67.45 66.78 66.91 67.58 67.60 66.93 64.83 65.66 65.84 66.26 64.69
59.79 59.75 61.77 62.30 63.35 63.67 64.96 64.68 64.44 64.51 65.16 64.57 64.22 64.13 64.26 65.19 65.12 64.97 65.07 64.88 65.06 65.26 65.12 64.25 64.51 66.78 68.28 63.22 61.63 64.04 68.14 67.85 67.58 67.07 67.04 67.35 68.77 66.51 67.00 63.90 63.80 63.89 64.21
59.30 61.02 60.37 61.58 62.27 63.55 64.02 64.63 64.63 63.41 63.89 65.10 64.89 63.48 62.92 62.33 62.62 63.03 63.62 64.33 64.49 64.39 65.24 66.73 66.04 64.97 66.37 61.27 60.55 62.24 65.48 66.58 66.84 67.34 67.38 67.11 67.25 66.75 66.87 66.15 64.96 64.55 64.61
59.92 60.57 62.30 61.96 61.27 61.44 62.89 62.87 62.06 63.03 62.11 62.01 62.12 63.17 63.46 62.76 61.85 61.56 61.96 63.93 64.52 64.62 64.83 66.53 66.77 67.04 67.52 58.37 57.83 60.71 64.61 65.25 66.05 66.77 66.95 67.02 66.68 64.00 61.05 66.06 64.89 64.24 63.52
60.38 59.08 60.83 60.36 59.85 59.92 60.24 60.12 60.00 59.34 59.33 60.48 61.85 62.03 62.61 62.80 62.43 61.90 61.44 62.38 64.85 64.98 65.87 65.23 66.07 64.24 66.93 58.37 57.29 60.83 66.25 65.25 65.20 65.18 66.59 62.14 65.71 59.64 58.35 64.74 64.38 63.96 64.03
59.18 59.73 59.30 57.20 57.08 57.56 56.52 55.96 56.06 56.14 57.72 59.97 59.99 59.53 60.08 61.35 61.58 62.17 62.71 63.28 62.71 62.41 62.50 63.64 64.88 65.40 64.83 64.62 56.38 55.11 64.83 65.64 65.91 66.02 65.91 66.65 58.01 55.66 53.84 55.07 65.11 64.57 64.84
58.78 58.66 57.63 57.02 56.82 56.58 55.51 54.64 54.57 55.57 56.40 56.28 56.39 58.09 58.57 59.63 60.33 60.40 61.02 62.46 62.67 61.91 62.31 62.51 63.26 63.42 60.84 55.66 54.02 54.75 54.75 57.23 64.99 65.72 66.06 65.01 56.38 52.94 51.30 52.94 55.66 54.39 56.38
58.27 58.47 57.22 57.20 56.78 56.24 55.59 54.58 54.63 55.31 55.59 55.01 54.34 54.50 58.50 58.60 58.46 58.12 57.34 58.24 59.90 61.30 60.45 59.59 59.78 59.94 60.34 59.66 52.75 51.10 53.48 56.00 59.60 61.92 60.53 55.66 52.94 50.76 53.84 52.74 52.94 52.55 60.12
57.53 57.85 57.59 56.60 56.30 56.97 56.57 54.95 55.45 55.05 54.70 54.18 53.86 54.22 53.89 53.18 53.39 57.72 57.92 57.26 57.22 57.40 58.60 58.48 58.23 58.77 59.05 58.49 58.11 57.35 55.54 53.92 55.14 55.01 54.70 55.34 54.07 54.37 58.35 59.80 57.27 59.70 61.13
56.94 57.21 56.20 55.76 55.66 55.98 55.09 54.50 54.80 54.30 53.53 53.19 53.26 52.85 53.12 52.43 52.66 52.50 54.93 57.44 56.78 56.46 56.82 57.72 57.86 56.40 54.85 55.57 49.33 49.47 52.20 51.44 49.85 47.99 52.40 53.25 55.18 57.65 60.18 61.84 63.26 63.14 62.08
57.75 56.38 55.66 55.01 55.34 55.48 54.87 54.75 54.07 53.87 52.03 51.81 52.15 51.91 51.72 52.16 52.44 50.67 50.97 53.94 51.50 46.87 46.05 46.23 51.54 55.24 50.59 43.41 42.24 41.33 41.33 41.48 42.53 50.22 52.99 54.10 54.32 54.30 56.38 58.59 59.88 60.36 60.50

GFSMW_sfc_wetblb_111.txt.gz
Wetbulb
67.30 68.48 71.24 72.95 73.18 73.44 72.90 72.91 73.38 74.41 73.98 72.64 71.73 71.73 70.74 72.45 73.75 74.57 75.45 75.95 75.50 74.96 75.03 74.27 74.95 75.05 74.50 74.80 75.05 74.27 73.56 71.08 72.64 71.65 71.53 72.78 74.36 74.31 74.44 75.05 74.64 74.50 74.85
66.42 67.69 69.05 71.19 72.68 72.83 73.37 73.82 73.56 73.91 73.71 73.00 73.10 72.48 72.53 72.02 72.82 73.57 74.32 74.82 74.92 75.27 74.85 74.64 74.42 74.76 73.94 74.66 74.87 74.65 73.08 72.89 73.78 70.54 70.87 67.84 70.30 72.79 73.83 74.42 74.48 74.73 75.15
64.35 66.22 68.02 69.38 71.46 72.53 73.14 73.26 73.93 74.36 74.28 74.43 73.59 72.90 72.81 72.33 71.61 72.07 72.74 73.91 74.74 75.38 75.73 75.67 75.18 75.06 74.67 73.41 74.31 74.45 74.07 73.39 73.66 73.46 73.19 68.97 66.01 70.02 72.27 73.62 73.82 74.35 74.36
63.31 65.35 67.53 68.66 69.37 72.44 73.44 73.79 73.65 74.01 73.56 74.73 73.61 73.07 71.03 69.90 71.06 71.74 72.45 73.36 74.65 74.86 75.38 75.93 75.52 75.30 75.04 74.82 74.20 74.30 73.72 74.71 72.09 72.86 72.30 72.82 71.45 68.82 66.63 71.57 72.96 73.97 74.02
62.18 63.33 66.13 68.46 71.38 72.43 72.98 73.49 73.64 73.91 74.33 74.06 74.19 73.25 72.62 72.20 72.34 72.24 74.05 74.63 74.83 75.00 75.18 75.48 75.48 75.11 74.91 74.77 74.67 74.39 74.06 73.46 72.22 73.74 74.35 73.60 73.35 72.89 69.87 67.08 68.99 71.96 73.31
61.68 63.70 65.70 68.09 70.03 72.39 72.95 73.25 73.56 73.67 74.26 74.03 74.11 74.11 73.54 73.21 71.98 72.80 72.70 72.97 73.91 74.26 75.38 75.50 75.64 75.69 75.42 74.82 74.90 74.83 74.91 75.03 74.22 74.28 75.07 73.28 70.47 70.58 70.72 69.03 69.26 69.05 71.18
60.94 62.61 65.26 65.16 67.55 69.67 71.22 72.76 73.50 73.34 73.91 72.85 73.79 74.19 74.18 74.54 73.71 73.44 72.89 73.68 72.78 73.28 75.09 75.53 75.31 75.13 75.38 74.34 74.44 75.88 75.10 74.47 74.95 74.74 72.53 73.69 74.72 75.45 73.66 70.94 68.94 68.69 69.93
61.13 61.50 63.95 66.00 65.69 67.21 67.16 68.32 66.07 68.56 72.49 73.31 73.36 74.36 74.76 73.09 73.07 73.96 73.33 73.25 73.26 73.75 75.82 75.44 75.34 75.47 75.57 75.18 74.64 74.36 75.50 75.63 75.88 74.64 74.72 72.69 74.26 75.03 74.34 70.50 69.17 66.90 68.08
62.01 62.52 63.81 65.74 66.52 67.13 65.48 65.55 66.71 67.24 65.97 66.69 71.25 72.38 72.58 73.61 73.82 73.19 74.63 73.77 75.35 74.34 74.84 75.05 75.19 75.42 75.49 75.35 75.79 75.35 74.03 75.56 75.50 75.36 75.31 75.56 75.01 73.49 74.67 73.83 73.42 71.22 65.83
63.03 63.03 64.54 66.24 67.16 67.87 67.79 67.28 67.28 67.62 67.50 67.16 68.43 67.34 69.86 71.39 74.66 74.96 74.36 74.08 74.78 75.15 74.95 74.62 74.72 75.15 75.24 75.15 75.54 75.69 75.71 74.44 73.76 73.74 73.43 74.74 75.51 75.01 74.31 72.95 72.48 72.19 70.37
62.59 62.85 63.31 65.41 67.39 68.06 68.84 69.27 69.25 68.94 68.50 67.98 68.22 69.09 69.26 70.42 72.75 72.04 74.06 73.59 74.67 75.00 74.40 75.30 74.68 74.50 74.66 74.98 74.53 74.66 74.61 73.36 74.21 73.76 73.13 72.84 74.08 75.05 73.31 72.82 71.86 70.75 70.94
62.68 63.44 63.71 63.97 65.40 66.58 68.04 68.57 69.45 69.50 69.82 70.21 69.15 68.42 69.37 69.69 70.71 72.62 73.03 72.86 73.71 74.84 74.08 74.35 74.72 74.67 74.58 74.99 74.13 73.34 73.40 73.28 72.99 73.37 73.02 72.82 72.93 73.44 74.44 73.22 70.61 70.63 70.50
61.87 62.51 63.51 63.89 64.66 66.53 67.58 68.18 69.18 68.74 70.00 68.67 69.14 69.82 69.89 69.90 69.35 71.52 72.24 72.31 73.80 74.01 73.69 73.86 74.16 74.45 75.00 74.57 74.61 74.22 73.85 73.88 73.71 73.97 73.36 73.31 73.47 72.60 72.50 72.90 71.63 70.37 70.69
60.46 61.07 61.84 64.23 66.22 66.77 67.39 67.78 69.25 69.20 69.38 67.82 68.69 68.58 69.08 69.35 68.84 68.92 68.48 69.01 69.84 70.71 72.15 73.84 73.59 73.87 74.54 75.08 74.84 73.88 74.26 74.15 73.99 74.08 73.51 73.61 73.22 73.11 73.04 72.54 72.57 72.15 70.14
58.86 59.67 60.27 63.56 65.60 65.22 66.85 67.59 68.31 68.61 68.07 66.71 68.02 68.51 69.04 67.89 67.90 67.97 68.44 68.47 68.43 67.99 69.84 70.31 71.58 72.45 72.52 72.08 72.85 73.39 73.09 73.02 72.71 73.11 73.66 73.57 72.48 69.63 71.21 72.12 72.61 72.25 69.52
58.74 59.91 60.37 63.74 64.16 63.63 64.88 65.89 65.92 66.65 66.87 66.64 68.01 67.59 67.57 66.46 66.30 66.71 66.78 67.16 67.66 67.50 68.52 69.02 69.76 70.10 71.10 64.79 64.34 69.94 73.37 73.39 72.91 72.45 72.44 73.21 70.15 69.46 65.69 66.49 66.94 70.94 71.44
58.18 59.71 60.28 61.42 63.21 63.26 63.51 63.97 64.22 66.02 66.37 65.69 66.33 67.35 67.20 66.38 66.08 66.22 66.76 66.28 67.15 67.61 67.34 68.11 68.26 69.14 70.35 62.59 61.71 63.46 71.46 70.56 69.50 70.10 70.16 71.94 72.03 69.84 72.50 65.66 64.27 65.28 65.24
59.08 60.41 60.35 61.20 61.51 62.03 62.95 63.04 63.36 63.39 64.06 64.26 65.01 65.37 65.55 65.62 65.75 65.34 65.13 65.41 65.70 66.09 66.04 67.00 67.00 65.73 66.71 60.50 59.53 61.82 68.24 69.56 68.57 68.98 69.22 69.97 71.59 72.28 72.26 72.90 72.19 71.75 72.27
58.18 58.96 60.27 60.23 60.17 59.93 61.49 60.77 60.72 61.58 62.23 61.86 63.92 65.33 65.64 65.29 65.80 66.79 67.19 66.80 65.98 65.48 65.28 66.22 67.72 67.31 66.94 58.79 57.17 61.12 67.89 67.13 67.25 68.35 68.69 69.36 69.80 64.34 59.88 70.73 71.29 71.95 72.48
58.85 58.65 59.51 59.49 58.83 59.16 60.60 60.02 59.27 59.29 60.18 62.47 63.17 65.12 66.58 65.98 66.00 66.29 67.37 67.34 66.78 67.33 67.71 67.82 67.99 64.89 67.52 59.51 56.43 59.05 67.69 66.43 66.88 67.09 67.92 62.05 66.03 59.85 57.72 67.68 69.80 70.61 70.74
58.85 59.92 60.69 58.40 58.80 59.34 59.93 59.14 59.14 58.79 60.34 62.62 64.34 64.36 65.79 66.30 67.18 67.95 68.93 67.82 67.20 67.20 67.32 67.58 66.85 66.26 66.51 65.99 53.55 54.64 69.17 68.08 65.88 65.68 65.80 67.45 56.81 54.82 53.19 54.82 67.90 68.84 67.16
58.68 59.20 60.07 59.72 59.92 60.15 60.00 59.32 58.91 60.77 61.43 61.95 61.79 61.91 63.38 64.51 65.11 67.50 68.00 68.23 68.25 68.02 67.48 64.35 63.54 62.66 61.57 55.71 55.18 54.82 57.18 60.40 66.39 65.62 66.45 64.14 51.74 50.47 51.01 53.73 55.36 53.73 55.69
57.97 59.96 59.76 60.67 59.94 60.17 59.94 58.82 59.47 60.88 61.30 61.36 61.42 61.76 62.18 62.34 65.12 65.35 65.53 65.14 66.13 65.40 64.62 62.90 63.20 63.38 63.25 59.70 52.44 51.92 53.01 55.23 63.48 63.95 57.98 53.16 50.45 49.74 53.37 51.90 51.54 52.08 62.69
58.74 60.43 59.77 59.87 59.96 60.45 59.74 58.92 60.09 60.39 60.88 60.19 60.28 61.24 61.50 61.71 61.65 62.40 64.50 63.69 63.11 62.68 62.85 63.24 63.03 63.33 62.72 61.32 61.12 60.52 59.48 56.05 59.13 57.18 58.81 56.27 54.07 52.05 55.14 57.63 59.63 61.99 62.97
60.45 61.38 60.64 59.77 60.60 61.11 60.45 59.56 60.05 59.54 59.66 59.63 59.95 60.28 60.55 61.40 61.68 61.07 62.71 64.28 64.83 61.20 62.97 62.81 62.96 62.40 61.96 60.14 51.82 54.67 61.33 60.58 53.91 55.61 59.74 60.11 59.63 60.34 61.17 61.29 61.51 62.56 63.96
58.81 60.73 60.87 59.95 60.14 60.65 60.63 59.97 58.88 58.89 59.21 58.84 58.63 58.36 59.29 60.12 60.77 60.42 61.45 50.38 49.85 46.63 45.76 46.12 55.13 59.29 48.57 44.11 43.94 43.76 43.40 43.40 44.22 59.14 60.15 58.73 58.42 58.63 58.03 58.36 58.62 59.33 59.84

GFSMW_sfc_wetblb_114.txt.gz
Wetbulb
70.97 71.87 71.96 74.78 75.42 75.93 75.67 75.83 75.31 76.00 75.16 74.91 73.74 73.44 72.75 73.71 74.28 74.75 76.29 76.32 76.14 76.12 76.35 74.97 77.43 77.39 75.17 74.78 75.21 74.07 73.42 71.72 72.36 71.38 71.30 72.10 73.43 73.68 74.36 75.42 75.38 75.44 75.95
67.84 70.46 72.57 72.33 74.08 75.48 75.72 75.70 75.54 76.03 75.78 75.32 75.74 74.84 74.34 73.75 74.06 75.17 76.03 76.72 76.72 76.19 75.58 75.23 75.16 76.18 75.99 76.22 75.89 75.06 72.37 71.82 71.50 69.81 69.27 66.96 69.37 71.53 72.92 73.88 73.99 74.29 74.96
65.04 67.67 70.71 73.22 73.09 74.16 75.32 75.70 76.19 76.58 76.48 77.11 75.53 74.76 75.07 74.34 73.27 73.80 74.13 75.67 76.21 76.35 76.10 75.46 75.46 76.45 76.40 76.94 76.27 76.12 74.79 71.17 72.28 73.82 68.86 66.48 65.35 68.77 72.56 73.75 74.45 74.91 74.68
65.07 67.15 69.37 72.40 73.36 72.93 75.41 76.20 76.55 76.81 76.37 77.64 76.08 76.38 73.21 72.31 72.97 73.60 73.94 74.58 75.60 75.58 76.10 76.48 76.53 78.33 77.64 77.98 76.11 75.81 76.00 76.99 74.51 76.81 74.36 73.87 72.38 67.46 66.63 72.31 73.67 75.30 75.51
64.24 66.43 67.79 71.41 73.88 73.91 74.96 74.93 75.76 75.69 76.59 76.61 77.09 75.62 74.98 74.10 74.45 74.12 76.06 75.86 76.51 75.42 75.44 76.55 76.53 76.70 77.21 77.20 77.31 77.24 76.71 76.59 75.89 74.98 76.29 74.34 72.62 75.29 70.58 67.67 70.07 73.02 73.82
64.27 65.53 68.51 69.42 72.56 74.33 74.18 74.13 75.12 75.90 76.16 76.29 76.47 76.98 76.95 76.23 74.41 74.70 73.80 73.55 73.82 74.75 76.02 75.73 76.75 77.51 77.19 77.50 77.31 77.16 76.38 75.86 75.58 77.17 75.65 71.41 72.24 72.38 70.97 71.32 70.89 70.57 72.30
64.84 65.45 66.29 67.96 68.89 71.43 73.08 74.24 74.75 74.74 75.47 75.19 75.49 75.85 75.84 76.82 76.78 76.62 74.33 75.08 74.07 74.29 76.53 77.51 77.34 76.59 77.96 77.34 77.48 77.07 77.40 75.85 74.73 75.59 73.76 73.60 75.86 75.75 75.44 71.95 70.26 69.42 71.12
65.94 65.63 66.82 67.99 68.51 68.66 70.04 71.72 73.70 74.21 74.73 74.78 75.52 76.67 76.57 75.63 75.23 74.90 75.90 75.07 74.92 75.67 78.71 77.73 76.87 77.30 77.09 77.32 77.78 76.88 75.46 76.88 75.62 75.21 76.00 74.88 74.24 76.59 73.73 72.00 70.23 68.47 69.58
65.73 65.84 66.66 67.59 68.99 69.34 69.55 69.93 71.20 72.06 73.53 72.53 72.21 72.85 74.78 75.91 75.79 77.03 76.38 73.80 77.53 76.20 77.22 77.44 76.61 77.01 77.23 77.99 78.10 76.37 75.48 76.67 75.92 75.23 76.44 76.51 75.39 76.16 75.34 76.18 76.01 70.92 67.35
64.95 65.64 66.16 66.87 68.44 69.95 70.84 71.18 70.69 70.31 71.70 73.33 73.67 74.24 71.53 74.42 74.75 77.02 76.00 76.56 75.58 77.81 77.46 76.60 76.63 77.13 77.57 77.62 78.21 77.00 76.29 76.45 75.23 74.66 75.76 75.29 73.96 74.66 77.30 74.07 76.48 74.35 72.30
63.96 64.81 65.63 66.60 67.68 68.34 69.56 70.18 71.10 71.78 72.16 71.51 71.65 72.84 73.16 71.50 74.13 73.92 73.57 76.47 77.28 74.86 75.30 77.43 76.99 76.98 76.85 77.27 77.23 76.86 76.33 75.66 75.16 75.49 75.07 74.50 75.58 73.88 75.93 76.88 74.58 74.19 74.19
64.00 64.67 65.19 65.70 66.34 66.80 68.31 69.35 70.71 71.25 72.09 72.77 72.77 72.03 71.76 72.91 72.63 74.79 75.09 76.24 76.21 74.09 75.09 75.99 75.33 77.03 76.34 77.41 76.51 75.50 75.47 74.58 74.10 74.25 74.82 74.53 74.48 75.51 76.16 75.86 75.16 74.75 74.92
63.02 63.99 64.65 64.83 65.49 67.44 68.62 69.82 70.39 69.83 71.05 71.56 72.31 72.29 71.66 71.92 72.29 72.23 73.62 74.93 75.26 75.94 75.91 76.00 75.86 75.71 75.61 76.00 76.51 76.19 75.43 75.15 74.93 74.83 74.97 75.12 74.77 74.71 75.58 74.73 74.66 73.30 73.91
62.58 63.19 64.04 64.55 65.21 66.53 68.71 69.40 69.82 69.86 70.84 71.29 71.09 71.16 71.55 71.81 70.76 71.69 72.10 72.43 73.39 73.46 74.57 75.31 74.21 75.17 75.89 75.57 75.40 75.39 75.45 75.50 75.49 75.43 75.35 74.89 74.96 74.59 75.00 74.41 74.18 74.88 72.83
61.47 62.22 62.87 63.26 64.76 65.98 67.05 67.66 69.19 70.30 70.23 70.60 70.24 70.45 70.23 69.44 70.57 70.61 70.52 70.29 71.12 70.97 71.38 71.74 72.85 74.18 74.68 74.05 75.06 75.27 75.53 75.28 75.08 74.82 74.58 75.15 74.03 70.41 72.35 73.96 73.92 75.13 72.23
61.14 62.18 61.78 61.63 63.46 63.98 65.68 65.18 67.81 68.45 69.70 69.40 69.69 70.06 70.63 68.84 69.64 69.92 70.04 70.42 70.01 70.26 70.80 70.46 70.65 71.40 71.84 66.87 65.46 70.32 75.80 74.90 74.48 74.92 74.86 75.21 71.25 69.87 66.41 66.64 66.91 72.47 74.33
59.69 61.23 60.15 62.56 62.34 63.30 63.32 62.81 64.45 66.88 67.02 66.63 67.37 69.72 69.43 69.04 69.17 68.77 69.26 69.24 68.75 69.54 70.21 70.11 70.76 70.97 72.29 62.67 61.56 64.42 74.05 74.78 74.71 74.94 74.51 74.05 73.51 70.95 73.82 65.85 64.46 65.94 65.10
59.75 59.70 58.64 58.77 60.50 61.28 62.11 62.52 63.00 63.14 65.48 66.50 66.03 67.16 67.72 67.58 67.84 68.93 68.20 68.39 69.09 69.40 68.64 68.75 70.87 70.84 71.05 61.78 59.05 61.18 69.64 73.21 73.44 73.04 74.06 73.47 72.54 72.52 70.82 70.74 70.22 71.54 72.20
59.48 60.05 60.44 59.33 59.34 59.77 61.55 61.23 61.46 61.03 61.71 64.41 64.51 65.62 66.99 66.28 67.31 67.55 68.27 69.44 69.71 68.24 66.95 67.54 68.13 68.02 70.06 59.23 58.12 60.23 66.79 69.14 70.98 71.27 71.60 70.91 68.20 63.77 59.59 67.32 67.93 68.57 72.06
61.18 60.31 59.94 60.14 59.48 59.84 61.83 60.93 60.06 60.07 60.12 62.49 64.52 66.16 67.24 67.13 67.88 68.90 68.91 70.16 70.19 69.87 69.84 69.59 68.18 65.63 69.99 58.66 55.78 58.79 67.02 68.17 69.41 70.98 68.84 63.89 66.12 59.95 58.86 66.01 67.04 66.81 68.99
61.02 60.42 59.85 59.50 59.92 60.88 62.04 60.38 60.72 60.10 61.60 64.86 63.92 65.59 67.35 68.01 68.56 68.89 69.33 69.48 70.57 70.39 69.12 65.87 65.26 64.92 60.62 64.58 54.33 54.13 67.49 69.33 68.72 69.05 66.60 66.80 57.78 54.88 53.61 54.33 66.20 65.54 69.25
58.96 59.71 58.88 58.97 61.30 61.29 60.98 60.25 59.78 62.39 63.71 64.61 64.61 64.57 66.76 66.83 69.07 69.43 69.70 69.95 70.31 69.38 66.90 65.21 62.91 62.40 60.97 53.93 51.58 53.06 55.50 61.30 69.17 67.24 69.64 66.94 53.04 51.43 50.89 53.24 56.69 55.06 57.74
58.20 60.28 59.11 58.91 59.45 61.87 61.88 59.81 60.64 62.90 64.33 64.36 65.07 65.31 65.30 65.79 68.23 68.26 68.10 67.02 68.53 68.69 66.15 64.98 64.85 64.09 64.29 62.39 51.71 51.70 54.15 56.51 63.28 62.70 55.95 54.01 50.89 50.34 53.28 50.85 52.52 52.14 61.27
59.13 60.96 60.48 59.51 59.18 59.52 62.26 61.62 61.87 62.74 63.42 63.31 63.88 64.83 64.49 64.24 65.88 67.37 66.79 65.16 64.52 64.38 64.68 65.21 65.23 65.26 65.08 64.74 65.26 63.98 62.06 55.87 61.01 57.23 61.14 57.94 56.20 53.91 59.06 58.84 58.90 61.60 64.53
60.16 61.23 60.63 61.12 61.01 61.90 61.71 61.90 60.82 62.37 62.53 62.78 62.99 62.97 62.64 63.50 64.46 64.92 64.82 65.11 64.17 59.39 64.07 64.41 64.67 64.13 63.50 60.33 52.07 55.63 62.64 62.44 55.94 59.13 64.06 63.00 62.77 63.58 63.22 64.53 65.03 64.98 65.10
60.93 60.48 61.36 61.61 61.16 61.74 61.66 61.61 60.82 62.06 62.42 61.98 61.98 61.07 62.58 63.05 63.10 62.19 63.85 49.69 49.09 46.57 44.85 45.56 54.98 61.16 49.07 45.45 45.63 45.09 45.09 45.27 46.09 60.67 64.22 63.87 63.90 63.55 63.65 60.89 60.33 62.90 62.04

GFSMW_sfc_wetblb_117.txt.gz
Wetbulb
70.95 73.35 73.19 75.40 76.10 76.83 76.97 76.91 76.19 78.88 76.53 75.78 74.56 74.21 73.06 74.16 74.48 75.27 78.17 78.74 77.02 77.66 77.57 74.33 75.97 76.04 75.10 74.57 77.22 74.51 74.50 71.67 73.18 71.40 71.13 72.54 73.15 73.08 73.13 73.51 73.84 75.63 76.34
68.07 70.58 72.68 74.13 74.66 76.19 77.71 77.45 76.61 78.74 76.46 75.77 76.09 75.01 75.18 74.09 74.33 74.99 77.43 77.33 77.06 77.94 77.49 77.08 75.89 76.76 75.33 75.85 77.25 77.04 71.57 71.63 72.51 69.40 69.36 67.13 69.27 71.42 72.59 73.02 73.38 74.23 75.06
66.24 68.67 71.11 72.83 74.34 74.79 77.04 76.17 77.73 78.39 77.75 77.44 76.96 76.98 76.74 76.11 74.24 74.51 74.86 76.08 77.23 77.84 78.29 78.20 76.92 77.71 77.57 74.07 76.65 73.80 72.14 70.95 72.78 73.21 69.12 65.60 64.58 68.84 71.69 73.78 72.73 75.75 73.45
66.13 68.25 69.37 71.90 73.53 73.56 76.29 76.63 76.01 77.80 77.66 78.70 76.39 76.47 73.56 72.78 74.00 74.32 75.07 76.04 77.73 77.95 78.29 78.22 77.68 77.86 75.74 76.55 75.57 76.31 75.02 76.15 74.27 75.72 72.11 73.71 72.93 68.63 67.37 71.75 73.00 74.13 75.61
65.21 66.93 68.85 70.62 73.06 74.70 76.33 76.79 77.27 78.60 78.37 77.82 77.60 76.05 75.90 74.69 75.03 75.08 76.48 76.38 77.59 78.07 76.65 77.93 77.92 77.70 75.96 77.55 77.87 77.00 76.57 75.19 74.47 74.32 75.36 73.86 73.64 74.01 69.28 66.28 69.93 73.08 74.21
65.22 66.97 68.68 69.87 70.98 73.54 74.86 75.80 76.70 77.95 78.14 77.72 77.28 76.94 76.86 76.74 75.41 76.08 75.03 74.66 75.00 76.62 77.47 77.17 77.80 78.09 77.41 77.95 77.08 77.97 77.55 76.34 75.74 74.73 74.35 73.20 72.30 71.30 70.69 69.71 70.91 70.34 72.61
65.66 66.48 67.57 68.58 69.44 69.71 71.86 74.21 76.14 76.50 77.33 76.63 76.82 77.01 76.56 76.93 77.15 77.29 75.48 75.57 74.48 74.16 76.26 77.20 77.42 77.47 78.76 78.62 77.91 78.08 77.19 77.20 75.40 76.00 74.31 74.98 73.80 73.03 72.19 72.59 69.97 69.67 71.51
65.57 66.24 67.14 68.03 68.97 69.51 70.39 71.64 73.43 75.12 76.49 75.85 76.70 77.17 77.53 76.62 76.93 77.04 76.02 76.29 74.68 75.89 77.51 77.40 77.04 77.88 78.37 78.43 78.38 76.30 76.44 77.39 76.32 77.12 76.36 74.00 74.53 73.85 73.52 72.01 70.53 68.36 69.28
65.36 65.47 66.93 67.60 68.44 69.39 70.80 71.30 71.71 73.05 74.75 75.36 76.42 76.08 76.72 76.65 75.57 77.36 77.34 77.13 77.77 75.18 76.36 79.03 77.85 78.21 78.08 78.37 78.62 76.10 76.62 76.87 76.70 76.71 76.82 75.24 74.10 74.68 74.67 74.03 72.89 70.79 68.73
64.27 64.76 65.96 67.18 68.03 68.82 69.78 71.01 72.08 72.38 72.72 73.11 73.89 74.57 76.07 76.36 75.92 76.19 76.56 76.99 77.28 74.72 74.57 73.99 78.39 77.95 78.00 78.12 78.12 76.92 77.14 76.86 75.60 75.20 76.35 76.53 76.24 76.35 74.90 74.49 73.91 73.40 71.29
63.59 64.32 65.17 66.45 67.10 67.51 68.15 68.97 70.70 71.63 72.40 73.44 73.40 72.84 73.71 75.05 75.50 72.97 74.67 76.29 77.77 76.12 71.66 75.34 75.28 77.42 77.76 78.03 77.35 77.18 77.18 76.62 76.25 76.19 76.04 75.70 76.62 74.50 74.69 74.19 74.09 73.30 73.47
63.84 64.45 64.94 65.51 65.99 66.69 67.50 68.13 69.85 70.66 71.77 72.44 74.95 74.45 73.17 73.76 74.40 75.53 75.75 76.18 76.30 76.82 73.21 72.26 72.26 69.68 74.74 77.51 76.81 76.21 75.89 76.00 75.52 75.70 75.55 75.64 74.75 75.76 76.26 75.91 75.45 73.73 74.60
63.87 64.65 64.97 65.09 66.01 66.72 67.27 67.73 69.03 69.94 71.33 72.36 72.33 73.93 74.05 73.30 74.48 74.56 75.04 75.38 75.19 75.23 75.00 74.08 69.35 72.53 75.02 76.61 76.76 76.34 75.88 76.13 76.12 75.27 75.19 75.69 75.64 75.32 75.75 75.90 75.17 74.15 74.23
63.62 63.73 64.56 65.10 66.01 66.50 66.91 67.45 68.67 70.01 70.72 71.50 71.84 71.42 73.02 72.71 73.03 73.81 73.78 73.86 73.97 73.45 74.57 74.69 73.58 72.40 73.42 76.18 76.28 76.15 76.18 76.07 75.94 76.65 76.22 76.63 75.99 76.16 76.00 75.60 75.85 75.80 73.64
62.28 62.90 63.25 63.78 64.91 65.86 66.30 67.22 68.09 69.33 70.25 70.35 70.66 71.08 72.36 72.57 72.65 72.63 72.58 72.58 72.79 72.91 73.01 72.84 73.36 73.82 73.34 74.85 75.25 75.56 75.24 75.88 75.64 76.35 76.55 76.77 75.24 71.82 74.17 74.75 76.22 75.38 73.18
61.69 62.55 62.43 62.21 62.15 63.70 65.13 66.05 66.16 67.54 69.19 68.92 69.41 70.77 71.81 70.55 71.08 71.06 70.84 71.27 71.10 71.42 71.77 71.66 71.62 71.67 71.91 67.44 65.76 70.96 74.79 75.14 75.53 75.52 76.44 76.27 71.88 71.09 66.97 66.96 68.13 73.00 73.35
61.71 61.37 60.08 60.05 61.44 59.77 61.62 61.72 63.08 63.87 67.08 67.64 68.53 69.27 70.36 69.75 70.51 70.43 70.44 70.55 70.75 71.33 70.78 70.95 71.18 70.58 71.70 63.69 63.13 65.51 72.93 73.78 74.83 75.27 76.02 75.24 73.84 72.05 74.57 67.36 65.92 66.30 65.52
61.09 61.03 60.40 60.22 60.75 59.27 60.47 61.96 62.88 62.82 63.26 65.51 66.98 67.96 67.49 68.18 70.45 70.38 70.58 70.79 71.15 70.74 70.93 70.67 71.43 71.14 71.40 62.04 60.79 62.72 72.81 73.63 74.17 74.57 75.31 74.75 74.54 75.17 73.10 74.41 73.33 73.02 72.71
61.95 62.26 62.73 62.48 61.12 59.33 60.75 61.58 62.31 62.44 63.04 62.40 64.67 65.63 65.80 66.45 67.76 67.87 68.74 70.44 69.57 70.99 71.00 70.85 70.48 70.84 71.28 59.32 57.69 63.77 70.77 71.16 72.01 73.38 73.12 73.57 72.13 62.74 61.15 72.94 72.45 71.34 71.12
62.86 62.47 61.73 60.87 60.12 61.47 61.32 62.45 61.50 61.74 61.60 61.26 62.72 63.53 65.26 65.95 67.71 68.67 69.69 70.28 71.18 70.77 71.02 70.12 70.11 65.49 69.99 58.85 55.71 61.78 69.14 69.34 69.58 70.73 70.24 63.14 66.56 60.06 59.34 69.81 68.51 68.54 67.61
62.11 62.00 61.34 58.99 59.53 61.99 60.97 60.73 61.56 60.41 62.14 64.62 64.89 65.52 66.34 65.73 66.58 69.97 70.29 70.34 70.25 70.06 69.01 67.65 66.45 66.58 63.79 64.47 53.88 55.53 68.23 70.20 70.33 68.58 66.64 66.66 57.71 55.35 55.35 58.43 66.74 65.24 65.34
61.17 61.04 59.99 59.31 59.25 60.87 61.15 60.42 59.79 62.39 64.82 65.35 65.66 66.40 67.04 67.95 68.22 68.90 69.22 69.84 67.77 67.93 66.66 64.70 63.73 62.72 61.75 54.93 53.46 53.36 56.08 63.22 67.03 67.32 68.20 65.22 55.53 52.81 52.09 56.88 56.60 55.17 57.71
60.35 60.95 58.85 58.99 58.22 59.65 61.20 61.26 62.49 63.15 65.12 65.92 65.61 66.12 67.63 67.10 68.51 69.12 70.21 67.37 68.36 68.31 66.19 67.02 67.32 65.28 65.88 62.89 52.04 52.99 56.26 58.07 68.37 65.78 58.57 54.06 50.64 50.98 55.04 52.19 53.72 53.34 64.72
60.64 61.29 60.89 59.16 59.34 59.09 59.47 62.60 62.47 63.49 64.86 64.91 64.71 65.61 65.68 65.20 68.00 67.24 66.91 65.97 65.16 66.21 65.76 66.28 66.26 65.31 66.20 65.99 65.20 63.70 62.77 56.99 62.40 58.72 60.69 58.50 57.91 57.80 61.14 60.53 58.49 62.21 64.24
61.57 61.27 60.74 60.52 60.68 62.09 60.94 62.21 62.21 62.64 63.31 63.70 63.79 63.64 63.33 63.89 65.38 65.33 64.41 64.29 60.01 57.23 64.09 63.48 64.77 64.02 62.01 58.71 50.30 55.76 62.71 62.64 56.69 59.80 64.81 63.97 64.40 64.50 65.16 65.29 65.98 66.05 66.22
61.10 60.87 61.40 61.80 60.33 61.91 62.40 62.02 62.42 62.73 63.39 62.95 61.84 62.15 62.99 63.19 62.85 63.36 64.14 49.80 49.97 47.27 45.36 44.78 54.45 59.53 49.25 45.72 45.53 45.20 45.56 45.92 47.23 61.35 64.03 63.73 64.38 64.01 63.78 63.75 63.84 63.66 62.97

GFSMW_sfc_wetblb_123.txt.gz
Wetbulb
68.53 70.13 71.33 74.76 74.89 73.39 73.28 74.85 72.97 74.62 74.69 73.31 72.47 71.87 72.13 71.32 71.25 71.30 74.47 74.45 73.32 74.10 72.79 72.84 72.32 72.58 72.25 71.64 70.85 70.83 69.50 70.18 70.10 68.59 66.02 67.90 68.14 68.26 69.03 69.51 69.53 70.87 72.56
66.19 68.02 69.56 71.26 73.85 73.97 73.60 73.76 73.66 74.61 74.19 74.07 73.18 72.67 72.96 71.40 71.22 71.61 73.93 75.35 74.52 73.93 72.93 72.46 71.62 72.54 72.09 71.28 71.08 69.98 68.80 69.52 68.84 65.42 65.44 62.74 65.19 68.43 69.32 69.65 69.40 68.70 70.68
63.83 66.13 68.08 68.17 69.76 72.79 73.66 74.11 74.43 74.82 74.16 73.54 73.22 73.05 73.24 71.91 70.84 71.39 71.50 74.08 73.95 73.77 73.10 72.92 71.04 71.93 71.02 70.84 71.25 70.53 68.94 65.74 67.07 67.34 64.06 60.69 60.56 63.18 66.24 68.60 69.08 68.33 68.94
64.20 64.68 65.07 66.25 67.87 69.80 72.68 74.62 74.60 75.67 74.67 74.66 72.80 72.00 71.74 70.89 71.30 71.27 72.00 73.35 74.18 73.88 73.88 73.11 72.00 71.27 72.42 70.71 71.42 71.16 70.36 68.64 66.78 67.40 68.42 65.92 65.76 62.45 62.43 66.51 68.22 69.45 68.70
63.12 64.05 64.65 66.43 66.71 69.52 75.33 74.67 73.91 72.83 73.07 73.45 72.19 72.15 71.32 72.02 71.89 70.82 70.00 71.06 73.70 74.17 74.01 73.51 72.48 71.05 72.21 71.77 71.40 70.08 70.37 70.25 67.95 68.67 68.43 66.21 65.38 66.15 64.58 62.30 65.21 68.38 67.96
63.41 63.88 65.42 66.86 66.22 67.58 70.83 73.69 72.72 72.54 73.25 72.57 72.44 70.84 70.05 70.65 70.32 70.92 70.77 71.26 72.04 73.55 73.79 73.84 73.60 72.20 71.96 71.75 72.00 71.40 70.66 70.27 68.74 68.56 69.14 68.41 66.22 66.31 66.22 64.63 64.96 65.56 67.91
62.68 63.10 63.17 63.89 64.98 65.80 67.17 67.74 71.08 73.14 74.03 72.71 72.58 72.68 71.54 70.73 70.53 70.24 70.83 70.58 71.82 71.96 72.41 73.21 73.16 73.39 73.13 72.50 72.94 72.87 72.27 71.56 69.96 69.74 69.42 70.25 69.42 69.25 68.18 65.95 65.44 66.47 66.99
61.66 61.31 63.03 63.36 64.20 65.04 66.40 67.14 66.53 67.70 72.86 73.19 73.17 73.10 73.12 72.49 71.51 71.44 71.33 71.53 71.85 72.19 73.43 72.59 73.33 73.53 73.19 73.48 72.77 73.11 73.17 72.91 72.55 71.38 71.84 70.98 71.16 70.49 69.66 67.64 66.31 64.29 64.94
60.76 61.22 61.96 62.59 62.58 63.04 63.91 65.17 65.76 67.66 68.39 69.54 71.55 72.82 73.15 72.59 72.19 70.25 71.68 71.88 72.29 72.69 72.42 73.68 72.95 73.09 73.01 73.23 73.26 72.12 72.26 72.78 72.69 72.76 72.63 71.84 71.74 71.67 71.17 70.40 68.96 67.21 63.36
59.58 59.99 60.96 61.99 61.87 62.51 63.95 65.01 65.13 64.51 67.59 70.00 70.05 71.17 71.88 72.98 73.00 73.05 71.72 72.01 72.56 72.29 72.61 72.56 73.14 72.98 73.15 73.21 72.85 73.02 72.79 72.36 72.92 73.14 72.66 72.18 71.87 71.87 71.69 71.15 70.23 68.96 67.79
59.03 59.70 60.67 61.54 62.66 63.78 63.67 63.94 64.44 64.95 65.75 66.15 67.28 69.94 69.77 70.46 72.72 72.78 72.79 72.86 72.73 72.62 72.03 72.31 72.61 72.35 72.45 72.89 72.19 72.41 72.16 71.34 71.74 72.81 72.18 71.92 72.25 71.75 71.31 71.01 70.46 69.63 68.45
59.47 59.96 60.93 61.57 61.94 62.00 62.18 62.04 62.78 64.07 65.43 65.93 67.02 67.09 67.11 68.70 69.70 70.35 72.28 72.87 72.44 73.01 72.37 72.30 72.04 69.46 68.43 66.37 65.35 65.03 68.24 70.94 70.65 71.30 71.78 71.87 72.50 71.62 71.54 70.33 70.05 70.00 69.97
58.60 60.38 60.58 61.24 60.94 60.63 60.45 60.87 61.26 61.54 64.18 65.12 65.76 66.63 66.38 66.94 67.21 69.11 70.08 70.69 71.90 71.86 71.98 71.46 70.87 68.31 67.66 66.50 66.52 65.88 64.63 66.50 70.25 70.73 71.66 71.59 71.41 71.31 71.43 71.16 70.19 70.00 70.00
59.65 60.00 59.40 59.28 59.18 59.41 58.92 59.92 60.39 61.66 62.37 63.43 63.13 64.53 65.94 66.05 66.33 67.26 69.33 70.08 69.68 68.89 70.72 69.71 69.78 69.08 66.98 65.76 62.85 63.09 64.26 65.21 68.38 71.56 71.35 71.90 71.56 71.35 71.36 71.29 70.68 70.08 69.64
59.11 58.77 58.09 57.28 57.43 57.67 57.96 59.48 59.98 60.98 61.84 61.95 62.28 63.72 65.04 65.87 67.12 67.80 68.70 69.25 69.31 69.06 69.68 69.79 70.00 69.01 65.80 65.36 63.29 63.73 64.10 64.98 66.49 68.19 65.89 66.69 71.34 70.70 70.66 71.68 71.12 70.69 70.45
59.06 59.01 58.55 57.98 57.10 57.47 57.78 59.21 59.57 60.51 61.62 61.83 63.09 63.97 63.90 65.29 65.23 66.65 68.19 68.51 68.31 68.48 69.04 68.95 69.24 67.25 67.08 64.85 64.50 66.20 65.80 65.75 65.41 65.11 65.47 65.04 65.09 68.12 67.19 67.76 69.31 71.19 70.88
58.41 57.96 57.86 57.78 58.06 57.42 58.66 58.24 59.54 61.09 61.31 62.17 62.29 63.30 62.76 62.67 63.52 65.11 66.72 67.77 67.41 67.75 67.68 67.92 68.36 69.66 69.57 63.22 62.51 64.27 66.36 67.30 66.62 64.66 64.49 64.76 67.35 65.45 66.30 68.23 66.74 67.66 67.81
58.78 58.55 57.54 57.29 57.35 57.30 57.91 59.32 58.75 60.98 61.58 60.29 60.56 61.81 62.46 61.90 62.34 63.44 64.32 65.23 65.17 65.26 65.85 66.45 66.67 66.94 69.12 63.70 60.99 62.80 65.89 66.11 64.82 65.87 64.26 64.17 64.48 66.03 68.03 69.58 68.65 68.45 68.06
58.89 58.61 58.30 57.42 57.15 57.31 58.44 58.46 57.38 60.26 59.81 59.21 60.33 61.77 62.15 61.24 62.64 62.14 62.88 64.46 64.35 64.85 65.39 66.29 65.50 65.33 65.58 58.34 59.39 61.85 65.99 65.91 67.19 67.72 69.49 68.91 68.12 66.63 64.42 69.02 67.46 67.34 68.00
59.88 58.98 58.53 57.62 56.79 56.90 57.59 57.81 59.04 59.35 58.88 59.64 60.71 62.08 62.21 62.17 62.61 63.10 62.49 63.74 65.27 64.94 65.71 65.98 65.48 62.79 65.26 57.25 57.64 60.54 66.30 65.60 65.87 66.71 67.23 62.33 66.53 60.72 59.09 67.07 67.73 66.85 66.83
59.90 59.56 58.23 56.78 56.34 56.18 55.35 55.79 58.31 54.66 59.32 60.68 61.42 62.20 62.29 62.64 62.73 60.99 60.66 60.15 63.01 64.14 64.63 64.08 64.33 62.70 62.06 61.12 56.19 55.26 64.83 64.89 64.80 65.36 66.25 65.19 58.80 57.09 56.73 58.18 65.81 65.02 65.73
58.51 58.50 57.18 56.73 57.39 56.57 55.93 55.32 56.57 58.69 59.40 60.31 61.72 61.66 61.43 62.67 63.85 61.65 60.97 62.46 63.64 63.90 63.79 62.88 62.74 63.09 61.44 57.07 56.37 54.92 57.05 61.52 64.46 64.58 65.89 62.29 53.29 52.20 54.01 59.09 55.28 57.09 61.24
59.34 57.83 55.34 56.60 57.46 58.17 57.51 54.90 56.78 59.75 59.20 60.25 61.05 61.52 62.10 62.30 62.39 61.29 60.09 61.36 61.92 63.07 62.36 63.38 62.60 62.50 62.88 60.87 53.45 55.28 56.19 57.64 63.71 62.47 58.86 53.57 50.75 51.47 55.82 54.01 54.68 56.73 62.14
57.36 58.29 57.37 57.13 57.06 57.66 59.49 57.03 58.62 59.21 59.51 58.81 59.74 61.15 61.62 60.76 61.54 61.13 59.01 58.01 59.40 60.00 61.88 61.73 61.11 57.93 56.10 56.90 59.76 63.04 62.72 59.75 60.35 58.96 60.84 59.03 58.50 58.36 59.63 57.66 56.91 62.06 62.26
58.56 58.43 57.41 56.81 56.93 59.69 59.38 59.44 59.54 59.36 58.52 59.50 59.69 60.34 59.73 61.24 58.88 54.60 52.31 55.73 51.68 50.25 58.09 57.04 57.31 56.05 54.45 52.48 46.89 49.22 54.10 55.91 50.55 56.65 60.00 60.52 60.73 60.77 60.74 61.50 61.51 61.41 62.26
58.60 57.85 57.24 56.63 57.08 58.86 58.74 59.25 58.32 57.91 58.44 59.10 59.22 59.43 58.14 57.01 61.12 59.55 56.57 49.17 47.94 46.13 44.35 47.14 53.40 51.33 47.30 45.47 45.89 44.27 44.43 44.75 46.20 57.36 58.39 58.96 59.75 59.89 60.03 59.93 61.40 62.54 62.50